Location: Krasnoyarskiy Pitomnik
(51.1333°N, 71.6167°E)
Time: 09:04:12
(UTC+00:00)

COSMOS 2251 DEB - Visible Passes

Search period start: 07 October 2024 00:00
Search period end: 17 October 2024 00:00
Orbit: 513 x 668 km, 74.0° (Epoch: 06 October)

Date Brightness Start Highest point End Pass type
(mag) Time Alt. Az. Time Alt. Az. Time Alt. Az.
07 Oct ? 23:52:17 10° NNE 23:54:15 13° NE 23:56:11 10° ENE visible
09 Oct ? 00:00:04 10° N 00:02:51 18° NE 00:05:35 10° E visible
10 Oct ? 00:08:01 10° N 00:11:21 25° NE 00:14:36 10° ESE visible
11 Oct ? 00:16:05 10° N 00:19:46 37° ENE 00:23:21 10° SE visible
12 Oct ? 00:24:12 10° NNW 00:28:04 57° ENE 00:31:51 10° SE visible
12 Oct ? 22:55:23 10° NNE 22:57:24 14° NE 22:59:24 10° ENE visible
13 Oct ? 00:32:22 10° NNW 00:36:17 89° WSW 00:40:07 10° SSE visible
13 Oct ? 23:03:00 10° N 23:05:50 19° NE 23:08:36 10° E visible
14 Oct ? 00:40:36 10° NNW 00:44:24 55° WSW 00:48:09 10° S visible
14 Oct ? 14:49:17 10° SSW 14:50:32 19° SSW 14:50:32 19° SSW visible
14 Oct ? 23:10:49 10° N 23:14:09 26° NE 23:17:26 10° ESE visible
15 Oct ? 00:48:54 10° NW 00:52:26 34° WSW 00:55:56 10° S visible
15 Oct ? 13:21:37 10° SE 13:23:46 15° E 13:23:46 15° E visible
15 Oct ? 14:57:25 10° SSW 15:00:25 43° SW 15:00:25 43° SW visible
15 Oct ? 23:18:43 10° NNW 23:22:23 38° ENE 23:25:59 10° SE visible
16 Oct ? 00:57:21 10° NW 01:00:23 22° WSW 01:03:24 10° SSW visible
16 Oct ? 13:28:35 10° SSE 13:31:52 22° ESE 13:33:20 18° ENE visible
16 Oct ? 15:05:44 10° SW 15:09:50 46° WNW 15:09:58 46° NW visible
16 Oct ? 21:51:18 10° NE 21:51:23 10° NE 21:51:28 10° NE visible
16 Oct ? 23:27:03 12° NNW 23:30:31 60° ENE 23:34:18 10° SE visible
